Pompano Beach, FL

2:14 AM EDT on May 21, 2018 (GMT -0400)
Pompano Beach

Weather History for KPMP - March, 2013

Change the Weather History Date:

Sunday, March 3, 2013

  Actual Average Record
Temperature  
Mean Temperature 56 °F -  
Max Temperature 62 °F 80 °F 90 °F (1971)
Min Temperature 50 °F 59 °F 32 °F (1980)
Degree Days  
Heating Degree Days 9    
Growing Degree Days 6 (Base 50)    
Moisture  
Dew Point 41 °F    
Average Humidity 61    
Maximum Humidity 86    
Minimum Humidity 41    
Precipitation  
Precipitation 0.01 in - - ()
Sea Level Pressure  
Sea Level Pressure 30.05 in    
Wind  
Wind Speed 8 mph (WNW)    
Max Wind Speed 20 mph    
Max Gust Speed 24 mph    
Visibility 10 miles    
Events Rain    
Averages and records for this station are not official NWS values.
T = Trace of Precipitation, MM = Missing Value Source: NWS Daily Summary

Daily Weather History Graph

Daily Weather History Graph

Search for Another Location

Airport or City:

Astronomy

Mar. 03, 2013 Rise Set
Actual Time 6:41 AM EST 6:23 PM EST
Civil Twilight 6:18 AM EST 6:46 PM EST
Nautical Twilight 5:51 AM EST 7:13 PM EST
Astronomical Twilight 5:25 AM EST 7:39 PM EST
Moon No Moon Rise 10:33 AM EST (3/3)
Length of Visible Light 12h 27m
Length of Day
11h 41m
Waning Gibbous, 64% of the Moon is Illuminated
Mar 3
Waning Gibbous
Mar 4
Last Quarter
Mar 11
New
Mar 19
First Quarter
Mar 27
Full

Hourly Weather History & Observations

Time (EST) Temp. Dew Point Humidity Pressure Visibility Wind Dir Wind Speed Gust Speed Precip Events Conditions
12:53 AM 51.1 °F 41.0 °F 68% 30.03 in 10.0 mi Calm Calm - N/A   Clear
1:53 AM 51.1 °F 43.0 °F 74% 30.02 in 10.0 mi NW 5.8 mph - N/A   Overcast
2:53 AM 51.1 °F 43.0 °F 74% 29.99 in 10.0 mi NNW 6.9 mph - N/A   Overcast
3:53 AM 51.1 °F 43.0 °F 74% 29.99 in 10.0 mi WNW 5.8 mph - 0.00 in Rain Light Rain
4:53 AM 51.1 °F 44.1 °F 77% 29.99 in 10.0 mi West 5.8 mph - 0.00 in   Overcast
5:53 AM 51.1 °F 45.0 °F 80% 30.01 in 10.0 mi West 8.1 mph - 0.00 in   Overcast
6:53 AM 50.0 °F 46.0 °F 86% 30.01 in 10.0 mi West 5.8 mph - 0.00 in Rain Light Rain
7:53 AM 52.0 °F 46.0 °F 80% 30.02 in 10.0 mi WNW 10.4 mph - 0.01 in   Partly Cloudy
8:53 AM 55.0 °F 44.1 °F 67% 30.04 in 10.0 mi NW 12.7 mph - N/A   Partly Cloudy
9:53 AM 55.9 °F 43.0 °F 62% 30.06 in 10.0 mi NW 13.8 mph - N/A   Partly Cloudy
10:53 AM 57.0 °F 39.0 °F 51% 30.06 in 10.0 mi NW 12.7 mph - N/A   Clear
11:53 AM 57.9 °F 37.9 °F 47% 30.04 in 10.0 mi NNW 15.0 mph - N/A   Clear
12:53 PM 62.1 °F 37.9 °F 41% 30.03 in 10.0 mi WNW 18.4 mph 24.2 mph N/A   Partly Cloudy
1:53 PM 61.0 °F 37.9 °F 42% 30.01 in 10.0 mi NNW 11.5 mph 23.0 mph N/A   Mostly Cloudy
2:53 PM 60.1 °F 37.9 °F 44% 30.01 in 10.0 mi WNW 12.7 mph - N/A   Scattered Clouds
3:53 PM 60.1 °F 37.9 °F 44% 30.01 in 10.0 mi WNW 10.4 mph - N/A   Overcast
4:53 PM 62.1 °F 37.9 °F 41% 30.03 in 10.0 mi West 19.6 mph 24.2 mph N/A   Mostly Cloudy
5:53 PM 60.1 °F 37.9 °F 44% 30.04 in 10.0 mi West 10.4 mph - N/A   Scattered Clouds
6:53 PM 57.0 °F 39.9 °F 53% 30.07 in 10.0 mi West 19.6 mph 24.2 mph N/A   Partly Cloudy
7:53 PM 55.0 °F 39.9 °F 57% 30.09 in 10.0 mi West 13.8 mph - N/A   Partly Cloudy
8:53 PM 53.1 °F 41.0 °F 64% 30.12 in 10.0 mi West 9.2 mph - N/A   Clear
9:53 PM 52.0 °F 41.0 °F 66% 30.15 in 10.0 mi West 9.2 mph - N/A   Clear
10:53 PM 51.1 °F 41.0 °F 68% 30.16 in 10.0 mi WNW 11.5 mph - N/A   Clear
11:53 PM 50.0 °F 39.9 °F 68% 30.14 in 10.0 mi NW 13.8 mph - N/A   Clear